DBMLL EDDC-EDDW

Flight info

Callsign DBMLL
Flight time 0h 43m
Altitude 30000
Route BEBEX7E BEBEX Q230 TADUV/N0506F280 T804 MAG L986 SAS Z88 NIE DCT PIXUR PIXUR3P
Aircraft C750/M-SBDE3FGHRWXY/S

Departure

Time 2026-05-08 16:24
Airport Dresden Airport (EDDC)

Arrival

Time 2026-05-08 17:07
Airport Bremen Airport (EDDW)
Time Latitude Longitude Altitude Speed Heading
2026-05-08 15:54 51.12329 13.75947 755 ft 0 kts 40°
2026-05-08 16:19 51.12330 13.75948 755 ft 1 kts 40°
2026-05-08 16:19 51.12344 13.75976 755 ft 5 kts 76°
2026-05-08 16:19 51.12368 13.76040 751 ft 5 kts 28°
2026-05-08 16:20 51.12392 13.76067 753 ft 4 kts 41°
2026-05-08 16:20 51.12417 13.76101 754 ft 6 kts 41°
2026-05-08 16:20 51.12450 13.76147 752 ft 8 kts 41°
2026-05-08 16:20 51.12503 13.76182 753 ft 7 kts 327°
2026-05-08 16:21 51.12526 13.76147 756 ft 4 kts 313°
2026-05-08 16:21 51.12552 13.76102 755 ft 8 kts 308°
2026-05-08 16:21 51.12601 13.76008 755 ft 12 kts 308°
2026-05-08 16:21 51.12652 13.75914 758 ft 10 kts 311°
2026-05-08 16:22 51.12702 13.75841 758 ft 10 kts 337°
2026-05-08 16:22 51.12772 13.75880 756 ft 28 kts 41°
2026-05-08 16:22 51.13245 13.76525 746 ft 139 kts 39°
2026-05-08 16:22 51.13974 13.77606 1281 ft 154 kts 45°
2026-05-08 16:23 51.14883 13.78943 1323 ft 204 kts 42°
2026-05-08 16:23 51.16077 13.80587 1280 ft 245 kts 41°
2026-05-08 16:23 51.17392 13.82382 1288 ft 250 kts 41°
2026-05-08 16:23 51.18722 13.84098 1155 ft 243 kts 32°
2026-05-08 16:24 51.20372 13.85142 1180 ft 275 kts 17°
2026-05-08 16:24 51.22180 13.85791 1790 ft 270 kts
2026-05-08 16:24 51.24063 13.85415 2135 ft 269 kts 343°
2026-05-08 16:24 51.25823 13.84338 3055 ft 266 kts 340°
2026-05-08 16:25 51.27534 13.83530 4510 ft 255 kts 348°
2026-05-08 16:25 51.29310 13.83110 5514 ft 262 kts 351°
2026-05-08 16:25 51.30924 13.81749 6448 ft 268 kts 316°
2026-05-08 16:25 51.31912 13.79255 7597 ft 271 kts 289°
2026-05-08 16:26 51.32196 13.76271 8776 ft 272 kts 276°
2026-05-08 16:26 51.32371 13.73246 9858 ft 277 kts 276°
2026-05-08 16:26 51.32546 13.70139 10662 ft 289 kts 275°
2026-05-08 16:26 51.32738 13.66801 10983 ft 314 kts 275°
2026-05-08 16:27 51.32948 13.63177 11185 ft 340 kts 275°
2026-05-08 16:27 51.33165 13.59375 11978 ft 343 kts 275°
2026-05-08 16:27 51.33380 13.55552 12796 ft 346 kts 275°
2026-05-08 16:27 51.33599 13.51714 13556 ft 349 kts 275°
2026-05-08 16:28 51.33819 13.47820 14295 ft 353 kts 275°
2026-05-08 16:28 51.34034 13.43949 15010 ft 356 kts 275°
2026-05-08 16:28 51.34253 13.39983 15722 ft 359 kts 275°
2026-05-08 16:28 51.34474 13.35991 16419 ft 363 kts 275°
2026-05-08 16:29 51.34699 13.31896 17147 ft 366 kts 274°
2026-05-08 16:29 51.34915 13.27904 17850 ft 369 kts 274°
2026-05-08 16:29 51.35139 13.23771 18593 ft 372 kts 274°
2026-05-08 16:29 51.35374 13.19569 19311 ft 376 kts 275°
2026-05-08 16:30 51.35831 13.15440 19963 ft 381 kts 281°
2026-05-08 16:30 51.36363 13.11266 20696 ft 383 kts 281°
2026-05-08 16:30 51.36868 13.07112 21378 ft 387 kts 280°
2026-05-08 16:30 51.37359 13.02862 22041 ft 390 kts 279°
2026-05-08 16:31 51.37862 12.98585 22688 ft 394 kts 280°
2026-05-08 16:31 51.38383 12.94268 23321 ft 397 kts 280°
2026-05-08 16:31 51.38905 12.89894 23914 ft 401 kts 280°
2026-05-08 16:31 51.39420 12.85494 24538 ft 404 kts 279°
2026-05-08 16:32 51.39938 12.81060 25136 ft 407 kts 280°
2026-05-08 16:32 51.40466 12.76584 25702 ft 410 kts 280°
2026-05-08 16:32 51.40996 12.72079 26275 ft 413 kts 279°
2026-05-08 16:32 51.41525 12.67545 26839 ft 416 kts 279°
2026-05-08 16:33 51.42134 12.62995 27329 ft 420 kts 284°
2026-05-08 16:33 51.43167 12.58586 27902 ft 424 kts 293°
2026-05-08 16:33 51.44590 12.54496 28421 ft 429 kts 301°
2026-05-08 16:33 51.46438 12.50698 28977 ft 434 kts 310°
2026-05-08 16:34 51.48659 12.47361 29468 ft 440 kts 318°
2026-05-08 16:34 51.51075 12.44207 29962 ft 443 kts 318°
2026-05-08 16:34 51.53472 12.41034 30184 ft 453 kts 317°
2026-05-08 16:34 51.55900 12.37799 30190 ft 466 kts 318°
2026-05-08 16:35 51.58472 12.34397 30191 ft 479 kts 318°
2026-05-08 16:35 51.61042 12.31011 30195 ft 490 kts 318°
2026-05-08 16:35 51.66424 12.23856 30188 ft 503 kts 318°
2026-05-08 16:36 51.71799 12.16702 30179 ft 505 kts 318°
2026-05-08 16:36 51.77193 12.09491 30178 ft 506 kts 318°
2026-05-08 16:37 51.82575 12.02276 30186 ft 505 kts 318°
2026-05-08 16:37 51.87985 11.95000 30183 ft 506 kts 318°
2026-05-08 16:38 51.93383 11.87681 30175 ft 505 kts 316°
2026-05-08 16:38 51.97901 11.79080 30172 ft 501 kts 301°
2026-05-08 16:39 52.00884 11.68926 30172 ft 498 kts 287°
2026-05-08 16:39 52.02518 11.58026 30189 ft 497 kts 282°
2026-05-08 16:40 52.04068 11.47097 30192 ft 497 kts 282°
2026-05-08 16:40 52.05580 11.36133 30191 ft 498 kts 282°
2026-05-08 16:41 52.07094 11.25215 30189 ft 498 kts 282°
2026-05-08 16:42 52.09340 11.08739 30192 ft 498 kts 282°
2026-05-08 16:42 52.10833 10.97744 30193 ft 498 kts 281°
2026-05-08 16:43 52.12308 10.86749 30191 ft 498 kts 281°
2026-05-08 16:43 52.13779 10.75739 30182 ft 494 kts 281°
2026-05-08 16:43 52.14479 10.70505 29779 ft 456 kts 281°
2026-05-08 16:44 52.15130 10.65615 29000 ft 430 kts 281°
2026-05-08 16:44 52.15751 10.60904 27579 ft 422 kts 281°
2026-05-08 16:44 52.16360 10.56260 26190 ft 416 kts 281°
2026-05-08 16:44 52.16961 10.51694 24860 ft 408 kts 281°
2026-05-08 16:45 52.17561 10.47135 24009 ft 423 kts 281°
2026-05-08 16:45 52.18178 10.42390 24161 ft 435 kts 281°
2026-05-08 16:45 52.18810 10.37531 24261 ft 430 kts 281°
2026-05-08 16:45 52.19414 10.32890 24265 ft 413 kts 281°
2026-05-08 16:46 52.20015 10.28240 24270 ft 427 kts 281°
2026-05-08 16:46 52.20634 10.23415 24265 ft 443 kts 281°
2026-05-08 16:46 52.21274 10.18430 24262 ft 455 kts 281°
2026-05-08 16:46 52.21927 10.13338 24265 ft 459 kts 281°
2026-05-08 16:47 52.22578 10.08241 24263 ft 460 kts 281°
2026-05-08 16:47 52.23220 10.03178 24245 ft 441 kts 281°
2026-05-08 16:47 52.23820 9.98463 24162 ft 412 kts 281°
2026-05-08 16:47 52.24633 9.94025 24096 ft 406 kts 290°
2026-05-08 16:48 52.25834 9.89924 23976 ft 399 kts 298°
2026-05-08 16:48 52.27380 9.86160 23634 ft 394 kts 305°
2026-05-08 16:48 52.29218 9.82857 21987 ft 397 kts 315°
2026-05-08 16:48 52.31349 9.79950 20949 ft 399 kts 319°
2026-05-08 16:49 52.33468 9.77109 20681 ft 394 kts 319°
2026-05-08 16:49 52.35559 9.74237 20165 ft 390 kts 318°
2026-05-08 16:49 52.37609 9.71390 19655 ft 385 kts 317°
2026-05-08 16:49 52.39538 9.68373 19150 ft 382 kts 313°
2026-05-08 16:50 52.41275 9.65106 18640 ft 378 kts 307°
2026-05-08 16:50 52.42837 9.61668 18145 ft 375 kts 305°
2026-05-08 16:50 52.44418 9.58298 17647 ft 373 kts 308°
2026-05-08 16:50 52.46087 9.55050 17162 ft 370 kts 309°
2026-05-08 16:51 52.47735 9.51820 16683 ft 369 kts 308°
2026-05-08 16:51 52.49323 9.48546 16201 ft 366 kts 307°
2026-05-08 16:51 52.50902 9.45278 15724 ft 364 kts 308°
2026-05-08 16:51 52.52496 9.42057 15251 ft 362 kts 308°
2026-05-08 16:52 52.54084 9.38857 14786 ft 361 kts 308°
2026-05-08 16:52 52.55648 9.35664 14319 ft 358 kts 308°
2026-05-08 16:52 52.57201 9.32481 13861 ft 357 kts 308°
2026-05-08 16:52 52.58751 9.29314 13404 ft 354 kts 308°
2026-05-08 16:53 52.61815 9.23047 12502 ft 351 kts 308°
2026-05-08 16:53 52.63337 9.19920 12055 ft 349 kts 308°
2026-05-08 16:53 52.64855 9.16805 11608 ft 348 kts 308°
2026-05-08 16:54 52.66358 9.13718 11169 ft 339 kts 308°
2026-05-08 16:54 52.67793 9.10766 10717 ft 319 kts 308°
2026-05-08 16:54 52.69134 9.08000 10258 ft 301 kts 308°
2026-05-08 16:54 52.70408 9.05370 9801 ft 288 kts 308°
2026-05-08 16:55 52.71649 9.02808 9335 ft 284 kts 308°
2026-05-08 16:55 52.72875 9.00273 8875 ft 283 kts 308°
2026-05-08 16:55 52.74104 8.97730 8427 ft 284 kts 308°
2026-05-08 16:55 52.75333 8.95185 7989 ft 284 kts 308°
2026-05-08 16:56 52.76560 8.92641 7559 ft 283 kts 308°
2026-05-08 16:56 52.77783 8.90101 7125 ft 282 kts 308°
2026-05-08 16:56 52.78990 8.87593 6698 ft 274 kts 309°
2026-05-08 16:56 52.80156 8.85173 6263 ft 265 kts 309°
2026-05-08 16:57 52.81279 8.82831 5827 ft 258 kts 309°
2026-05-08 16:57 52.82385 8.80526 5389 ft 252 kts 309°
2026-05-08 16:57 52.83466 8.78272 5002 ft 246 kts 309°
2026-05-08 16:57 52.84487 8.76139 4996 ft 231 kts 309°
2026-05-08 16:58 52.85141 8.74777 5004 ft 229 kts 309°
2026-05-08 16:58 52.86134 8.72702 5006 ft 230 kts 309°
2026-05-08 16:58 52.87127 8.70625 5011 ft 231 kts 309°
2026-05-08 16:58 52.88122 8.68544 5011 ft 227 kts 309°
2026-05-08 16:59 52.89092 8.66510 4715 ft 222 kts 309°
2026-05-08 16:59 52.90039 8.64519 4403 ft 220 kts 309°
2026-05-08 16:59 52.90985 8.62532 4065 ft 220 kts 309°
2026-05-08 16:59 52.91929 8.60552 3731 ft 219 kts 309°
2026-05-08 17:00 52.92859 8.58601 3395 ft 217 kts 310°
2026-05-08 17:00 52.93815 8.56598 3045 ft 228 kts 309°
2026-05-08 17:00 52.94774 8.54568 3022 ft 219 kts 309°
2026-05-08 17:00 52.95706 8.52601 3013 ft 215 kts 310°
2026-05-08 17:01 52.96628 8.50662 3020 ft 214 kts 310°
2026-05-08 17:01 52.97546 8.48727 3016 ft 211 kts 310°
2026-05-08 17:01 52.98449 8.46823 2998 ft 210 kts 310°
2026-05-08 17:01 52.99499 8.45137 2962 ft 212 kts 332°
2026-05-08 17:02 53.00882 8.44489 2983 ft 207 kts
2026-05-08 17:02 53.02266 8.44961 2999 ft 204 kts 27°
2026-05-08 17:02 53.03349 8.46399 3002 ft 199 kts 53°
2026-05-08 17:02 53.03910 8.48470 3002 ft 197 kts 78°
2026-05-08 17:03 53.04037 8.50725 3026 ft 196 kts 87°
2026-05-08 17:03 53.04092 8.53012 2891 ft 202 kts 88°
2026-05-08 17:03 53.04147 8.55355 2618 ft 200 kts 88°
2026-05-08 17:03 53.04199 8.57565 2334 ft 176 kts 89°
2026-05-08 17:04 53.04244 8.59455 2117 ft 156 kts 89°
2026-05-08 17:04 53.04287 8.61242 1920 ft 157 kts 90°
2026-05-08 17:04 53.04329 8.62962 1716 ft 137 kts 90°
2026-05-08 17:04 53.04365 8.64427 1539 ft 119 kts 90°
2026-05-08 17:05 53.04395 8.65769 1398 ft 114 kts 91°
2026-05-08 17:05 53.04424 8.67094 1258 ft 117 kts 91°
2026-05-08 17:05 53.04454 8.68453 1097 ft 119 kts 91°
2026-05-08 17:05 53.04484 8.69813 954 ft 118 kts 91°
2026-05-08 17:06 53.04515 8.71188 788 ft 119 kts 91°
2026-05-08 17:06 53.04547 8.72557 636 ft 118 kts 90°
2026-05-08 17:06 53.04580 8.73920 478 ft 119 kts 91°
2026-05-08 17:06 53.04605 8.75288 320 ft 117 kts 91°
2026-05-08 17:07 53.04641 8.76634 151 ft 120 kts 90°
2026-05-08 17:07 53.04674 8.78011 29 ft 112 kts 90°
2026-05-08 17:07 53.04694 8.79077 19 ft 69 kts 88°
2026-05-08 17:07 53.04707 8.79579 18 ft 36 kts 87°
2026-05-08 17:08 53.04727 8.79913 20 ft 18 kts 63°
2026-05-08 17:08 53.04817 8.79964 20 ft 13 kts 346°